Location: Black Swamp Observatory
(41.3920°N, 84.1250°W)
Time: 12:43:41
(UTC-04:00)

Vanguard 2 - Pass Details

Date: 27 January 2022
Orbit: 552 x 2935 km, 32.9° (Epoch: 24 May)

Event Time Altitude Azimuth Distance (km) Brightness Sun altitude
Rises 20:42:34 0° 241° (WSW) 3,846 11.9 -33.0°
Reaches altitude 10° 20:44:55 10° 235° (SW) 3,137 11.2 -33.4°
Enters shadow 20:52:23 48° 167° (SSE) 2,067 9.4 -34.8°
